Location: Unspecified
(0.0000°N, 0.0000°E)
Time: 17:57:03
(UTC+00:00)

STARLINK 1064 - Pass Details

Date: 23 January 2020
Orbit: 549 x 551 km, 53.0° (Epoch: 17 January)

Event Time Altitude Azimuth Distance (km) Brightness Sun altitude
Exits shadow 05:37:34 - 266° (W) 1,984 5.9 -8.0°
Reaches altitude 10° 05:38:20 10° 274° (W) 1,812 5.6 -7.8°
Maximum altitude 05:40:25 14° 305° (NW) 1,594 5.4 -7.4°
Drops below altitude 10° 05:42:29 10° 335° (NNW) 1,807 5.8 -6.9°
Sets 05:45:42 0° 2° (N) 2,696 7.0 -6.1°
